カタログに戻る

SL-3 R/B

運用中SSO
NORAD 14208·ROCKET BODY·🇷🇺 Russia

打ち上げ Jul 24, 1983 から Baikonur Cosmodrome

Loading…

次のパス (今後24時間)

TLE

最新Source: Space-Track

元期: Sep 14, 2026, 22:09 UTC

1 14208U 83075B   26257.92325429  .00009653  00000-0  22712-3 0  9996
2 14208  97.6118 270.2067 0017898 270.3941  89.5255 15.42027893359284

AllMySatでSL-3 R/Bをリアルタイム追跡

Download on the App Store